Location: Recife
(8.0585°S, 34.8848°W)
Time: 11:06:23
(UTC-03:00)

SR - Pass Details

Date: 21 April 2026
Orbit: 568 x 852 km, 66.7° (Epoch: 12 May)

Event Time Altitude Azimuth Distance (km) Brightness Sun altitude
Rises 09:49:04 0° 179° (S) 2,776 ? 60.1°
Reaches altitude 10° 09:51:40 10° 164° (SSE) 1,870 ? 60.6°
Maximum altitude 09:54:57 22° 112° (ESE) 1,263 ? 61.2°
Drops below altitude 10° 09:58:14 10° 60° (ENE) 1,891 ? 61.8°
Sets 10:00:53 0° 44° (NE) 2,814 ? 62.2°
